Weather History for Farmington, MO

Change the Weather History Date:

Thursday, March 21, 2013

  Actual Average Record
Temperature  
Mean Temperature 27 °F -  
Max Temperature 37 °F 55 °F 86 °F (1997)
Min Temperature 17 °F 34 °F 17 °F (2013)
Degree Days  
Heating Degree Days 38    
Moisture  
Dew Point 13 °F    
Average Humidity 52    
Maximum Humidity 86    
Minimum Humidity 33    
Precipitation  
Precipitation 0.00 in - - ()
Sea Level Pressure  
Sea Level Pressure 30.04 in    
Wind  
Wind Speed 2 mph (East)    
Max Wind Speed 9 mph    
Max Gust Speed -    
Visibility 10 miles    
Events      
Averages and records for this station are not official NWS values.
T = Trace of Precipitation, MM = Missing Value Source: NWS Daily Summary

Daily Weather History Graph

Daily Weather History Graph

Search for Another Location

Airport:

Trip Planner

Search our weather history database for the weather conditions in past years. The results will help you decide how hot, cold, wet, or windy it might be!

Date:

Astronomy

Mar. 21, 2013 Rise Set
Actual Time 7:03 AM CDT 7:14 PM CDT
Civil Twilight 6:37 AM CDT 7:40 PM CDT
Nautical Twilight 6:06 AM CDT 8:11 PM CDT
Astronomical Twilight 5:35 AM CDT 8:42 PM CDT
Moon 1:49 PM CDT (3/21) 3:19 AM CDT (3/21)
Length of Visible Light 13h 03m
Length of Day
12h 11m
Waxing Gibbous, 69% of the Moon is Illuminated
Mar 21
Waxing Gibbous
Mar 27
Full
Apr 2
Last Quarter
Apr 10
New
Apr 18
First Quarter

Hourly Weather History & Observations

Time (CDT) Temp. Windchill Dew Point Humidity Pressure Visibility Wind Dir Wind Speed Gust Speed Precip Events Conditions
12:15 AM 24.8 °F - 10.4 °F 54% 30.11 in 10.0 mi Calm Calm - N/A   Clear
12:35 AM 24.8 °F - 12.2 °F 59% 30.11 in 10.0 mi Calm Calm - N/A   Clear
1:15 AM 21.2 °F - 12.2 °F 68% 30.11 in 10.0 mi Calm Calm - N/A   Clear
1:35 AM 23.0 °F - 12.2 °F 63% 30.10 in 10.0 mi Calm Calm - N/A   Clear
1:55 AM 21.2 °F - 12.2 °F 68% 30.10 in 10.0 mi Calm Calm - N/A   Clear
2:15 AM 21.2 °F - 15.8 °F 80% 30.09 in 10.0 mi Calm Calm - N/A   Clear
2:35 AM 24.8 °F - 10.4 °F 54% 30.09 in 10.0 mi Calm Calm - N/A   Clear
2:55 AM 21.2 °F - 8.6 °F 58% 30.08 in 10.0 mi Calm Calm - N/A   Clear
3:15 AM 21.2 °F - 10.4 °F 63% 30.08 in 10.0 mi Calm Calm - N/A   Clear
3:35 AM 19.4 °F - 14.0 °F 80% 30.08 in 10.0 mi Calm Calm - N/A   Clear
3:55 AM 19.4 °F - 12.2 °F 74% 30.08 in 10.0 mi Calm Calm - N/A   Clear
4:15 AM 19.4 °F - 12.2 °F 74% 30.07 in 10.0 mi Calm Calm - N/A   Clear
4:35 AM 21.2 °F 16.4 °F 10.4 °F 63% 30.08 in 10.0 mi NNW 3.5 mph - N/A   Clear
4:55 AM 19.4 °F - 10.4 °F 68% 30.07 in 10.0 mi Calm Calm - N/A   Clear
5:15 AM 19.4 °F 14.3 °F 12.2 °F 74% 30.08 in 10.0 mi West 3.5 mph - N/A   Clear
5:35 AM 17.6 °F - 14.0 °F 86% 30.08 in 10.0 mi Calm Calm - N/A   Clear
5:55 AM 19.4 °F - 10.4 °F 68% 30.08 in 10.0 mi Calm Calm - N/A   Clear
6:15 AM 17.6 °F - 12.2 °F 79% 30.09 in 10.0 mi Calm Calm - N/A   Clear
6:35 AM 19.4 °F - 10.4 °F 68% 30.09 in 10.0 mi Calm Calm - N/A   Clear
6:55 AM 19.4 °F 12.8 °F 12.2 °F 74% 30.09 in 10.0 mi NNW 4.6 mph - N/A   Clear
7:15 AM 19.4 °F 12.8 °F 10.4 °F 68% 30.09 in 10.0 mi NNW 4.6 mph - N/A   Clear
7:35 AM 17.6 °F - 10.4 °F 73% 30.09 in 10.0 mi Calm Calm - N/A   Clear
7:55 AM 21.2 °F - 12.2 °F 68% 30.10 in 10.0 mi Calm Calm - N/A   Clear
8:15 AM 21.2 °F 16.4 °F 10.4 °F 63% 30.10 in 10.0 mi NNE 3.5 mph - N/A   Clear
8:35 AM 23.0 °F 14.7 °F 10.4 °F 59% 30.11 in 10.0 mi NNE 6.9 mph - N/A   Clear
8:55 AM 24.8 °F - 12.2 °F 59% 30.11 in 10.0 mi Calm Calm - N/A   Clear
9:15 AM 24.8 °F - 12.2 °F 59% 30.11 in 10.0 mi Calm Calm - N/A   Clear
9:35 AM 24.8 °F 20.5 °F 10.4 °F 54% 30.10 in 10.0 mi NW 3.5 mph - N/A   Clear
9:55 AM 26.6 °F 22.6 °F 10.4 °F 51% 30.11 in 10.0 mi NW 3.5 mph - N/A   Clear
10:15 AM 26.6 °F 20.0 °F 10.4 °F 51% 30.10 in 10.0 mi North 5.8 mph - N/A   Clear
10:35 AM 28.4 °F 24.6 °F 10.4 °F 47% 30.10 in 10.0 mi West 3.5 mph - N/A   Clear
10:55 AM 28.4 °F - 10.4 °F 47% 30.10 in 10.0 mi Calm Calm - N/A   Clear
11:15 AM 30.2 °F 24.3 °F 10.4 °F 44% 30.10 in 10.0 mi NNE 5.8 mph - N/A   Clear
11:35 AM 30.2 °F 24.3 °F 12.2 °F 47% 30.10 in 10.0 mi NNW 5.8 mph - N/A   Clear
11:55 AM 32.0 °F 26.4 °F 10.4 °F 41% 30.09 in 10.0 mi NE 5.8 mph - N/A   Clear
12:15 PM 32.0 °F 26.4 °F 10.4 °F 41% 30.09 in 10.0 mi ENE 5.8 mph - N/A   Clear
12:35 PM 33.8 °F 29.6 °F 10.4 °F 38% 30.08 in 10.0 mi East 4.6 mph - N/A   Clear
12:55 PM 33.8 °F 28.6 °F 10.4 °F 38% 30.07 in 10.0 mi NNE 5.8 mph - N/A   Clear
1:15 PM 33.8 °F 27.7 °F 10.4 °F 38% 30.05 in 10.0 mi East 6.9 mph - N/A   Clear
1:35 PM 35.6 °F 29.9 °F 10.4 °F 35% 30.05 in 10.0 mi NE 6.9 mph - N/A   Clear
1:55 PM 35.6 °F 30.7 °F 10.4 °F 35% 30.03 in 10.0 mi ESE 5.8 mph - N/A   Clear
2:15 PM 35.6 °F 30.7 °F 10.4 °F 35% 30.02 in 10.0 mi NE 5.8 mph - N/A   Clear
2:35 PM 35.6 °F - 8.6 °F 33% 30.00 in 10.0 mi Calm Calm - N/A   Clear
2:55 PM 35.6 °F 32.8 °F 12.2 °F 38% 29.99 in 10.0 mi South 3.5 mph - N/A   Clear
3:15 PM 37.4 °F 33.8 °F 12.2 °F 36% 29.98 in 10.0 mi SE 4.6 mph - N/A   Clear
3:35 PM 37.4 °F 32.1 °F 12.2 °F 36% 29.98 in 10.0 mi ESE 6.9 mph - N/A   Clear
3:55 PM 37.4 °F 32.8 °F 12.2 °F 36% 29.98 in 10.0 mi ESE 5.8 mph - N/A   Clear
4:15 PM 37.4 °F - 12.2 °F 36% 29.98 in 10.0 mi Calm Calm - N/A   Clear
4:35 PM 37.4 °F - 10.4 °F 33% 29.98 in 10.0 mi Calm Calm - N/A   Mostly Cloudy
4:55 PM 37.4 °F - 12.2 °F 36% 29.98 in 10.0 mi Calm Calm - N/A   Mostly Cloudy
5:15 PM 37.4 °F 34.9 °F 12.2 °F 36% 29.98 in 10.0 mi East 3.5 mph - N/A   Partly Cloudy
5:35 PM 37.4 °F 32.8 °F 14.0 °F 38% 29.98 in 10.0 mi East 5.8 mph - N/A   Scattered Clouds
5:55 PM 37.4 °F 32.1 °F 14.0 °F 38% 29.98 in 10.0 mi East 6.9 mph - N/A   Partly Cloudy
6:15 PM 37.4 °F 32.1 °F 14.0 °F 38% 29.98 in 10.0 mi East 6.9 mph - N/A   Mostly Cloudy
6:35 PM 37.4 °F 31.4 °F 15.8 °F 41% 29.97 in 10.0 mi East 8.1 mph - N/A   Scattered Clouds
6:55 PM 37.4 °F 31.4 °F 14.0 °F 38% 29.97 in 10.0 mi East 8.1 mph - N/A   Partly Cloudy
7:15 PM 35.6 °F 29.2 °F 15.8 °F 44% 29.97 in 10.0 mi East 8.1 mph - N/A   Partly Cloudy
7:35 PM 35.6 °F 28.6 °F 14.0 °F 41% 29.97 in 10.0 mi East 9.2 mph - N/A   Partly Cloudy
7:55 PM 35.6 °F 29.2 °F 14.0 °F 41% 29.97 in 10.0 mi East 8.1 mph - N/A   Partly Cloudy
8:15 PM 35.6 °F 29.9 °F 15.8 °F 44% 29.98 in 10.0 mi East 6.9 mph - N/A   Clear
8:35 PM 35.6 °F 31.7 °F 15.8 °F 44% 29.98 in 10.0 mi East 4.6 mph - N/A   Scattered Clouds
8:55 PM 35.6 °F 30.7 °F 17.6 °F 48% 29.98 in 10.0 mi East 5.8 mph - N/A   Partly Cloudy
9:15 PM 35.6 °F 31.7 °F 17.6 °F 48% 29.99 in 10.0 mi SE 4.6 mph - N/A   Scattered Clouds
9:35 PM 35.6 °F 29.9 °F 15.8 °F 44% 29.99 in 10.0 mi SE 6.9 mph - N/A   Scattered Clouds
9:55 PM 35.6 °F 30.7 °F 15.8 °F 44% 29.99 in 10.0 mi ESE 5.8 mph - N/A   Mostly Cloudy
10:15 PM 35.6 °F 30.7 °F 17.6 °F 48% 30.00 in 10.0 mi East 5.8 mph - N/A   Partly Cloudy
10:35 PM 35.6 °F 30.7 °F 17.6 °F 48% 29.99 in 10.0 mi ESE 5.8 mph - N/A   Mostly Cloudy
10:55 PM 35.6 °F 29.9 °F 17.6 °F 48% 29.99 in 10.0 mi SE 6.9 mph - N/A   Overcast
11:15 PM 35.6 °F 29.2 °F 17.6 °F 48% 29.98 in 10.0 mi SE 8.1 mph - N/A   Overcast
11:35 PM 33.8 °F 27.0 °F 19.4 °F 56% 29.99 in 10.0 mi SSE 8.1 mph - N/A   Overcast
11:55 PM 33.8 °F 28.6 °F 19.4 °F 56% 29.99 in 10.0 mi South 5.8 mph - N/A   Overcast